{"data":{"norad_id":45027,"epoch":"2026-09-19T06:44:26.619360Z","epoch_age_seconds":127348,"freshness":"FRESH","line1":"1 45027U 20005B   26262.28086365  .00000046  00000+0  00000+0 0  9999","line2":"2 45027   0.0631  98.8541 0002014 104.8364 262.8225  1.00275166 25280","mean_motion":1.00275166,"eccentricity":0.0002014,"inclination_deg":0.0631,"raan_deg":98.8541,"arg_perigee_deg":104.8364,"mean_anomaly_deg":262.8225,"bstar":0,"rev_number":2528,"period_min":1436.0484828317,"perigee_km":35777.155384656,"apogee_km":35794.13895692,"semimajor_km":42163.784170788,"source":"CELESTRAK","updated_at":"2026-09-20T09:00:35.292581Z"}}